Terminal Aerodrome Forecast
Issued by NWS Pittsburgh, PA

Current Version | Previous Version | Graphics & Text | Print | Product List | Glossary On
Versions: 1 2 3 4 5 6 7 8 9 10 11 12 13 14 15 16 17 18 19 20 21 22 23 24 25 26 27 28 29 30 31
000
FTUS41 KPBZ 270901 AAA
TAFPIT
TAF AMD
KPIT 270901Z 2709/2812 15007KT P6SM SCT015 OVC060
      TEMPO 2709/2713 BKN015
     FM271400 23008KT P6SM BKN035
     FM280200 18003KT P6SM VCSH BKN090=

USA.gov is the U.S. government's official web portal to all federal, state and local government web resources and services.